Wind_Speed
13 14 15 16 17 18 20 21 22 24 25 26 27 28 30 31 31 28 23 19 16 15 16 17 19 22 26 30 35 39 40 39 38 36 34 32 30 27 26 25 26 26
11 12 13 14 14 15 16 18 19 21 22 24 25 26 27 29 31 30 27 22 18 16 16 17 20 24 28 32 37 39 39 38 37 35 33 31 28 26 24 24 24 25
8 10 11 12 12 13 14 14 16 17 19 21 22 24 25 26 28 30 29 25 21 18 16 17 19 24 29 34 38 40 39 38 36 34 32 29 26 23 22 22 22 23
6 7 8 9 10 11 11 12 13 14 16 18 19 21 22 23 25 27 28 27 23 20 17 16 18 23 28 34 38 39 38 37 35 32 30 27 24 21 20 20 21 22
4 4 5 6 7 8 9 9 10 11 13 14 16 18 20 21 22 23 26 27 25 21 18 17 18 21 26 32 36 38 37 35 33 30 28 25 22 20 20 20 19 19
1 2 2 3 4 5 6 6 7 8 9 11 13 15 16 18 19 20 22 24 25 23 19 17 18 21 25 29 33 35 34 33 31 29 27 24 21 20 19 18 17 16
3 2 1 1 2 2 3 3 4 5 6 8 10 12 13 14 16 17 18 20 23 23 20 17 17 20 23 28 31 32 32 31 30 28 26 24 21 18 16 16 17 17
6 6 5 3 2 1 0 1 1 3 4 5 7 9 10 11 12 13 15 17 19 20 20 17 15 17 21 25 29 30 30 30 29 28 27 26 24 20 17 18 20 21
7 6 7 6 5 3 3 2 1 1 2 3 4 5 7 8 8 9 10 12 14 16 17 17 15 14 16 21 26 28 29 30 29 28 27 27 27 25 21 21 20 19
10 9 8 7 6 5 5 5 4 3 1 0 1 2 2 4 5 6 6 8 10 11 12 14 14 13 13 15 20 24 26 27 27 26 26 26 27 26 22 21 20 19
14 13 11 10 9 7 6 6 6 7 6 5 4 3 1 0 1 3 4 4 5 8 9 10 10 10 10 10 15 20 23 25 25 24 25 25 25 24 21 20 21 20
16 14 13 12 11 9 7 6 6 7 7 7 8 7 5 3 2 1 1 1 1 2 5 7 7 7 6 7 11 15 19 23 24 24 25 26 25 24 22 21 21 20
19 17 16 15 14 13 11 9 8 8 7 8 8 9 8 5 3 2 3 2 3 2 2 3 4 5 4 5 6 9 12 16 20 23 26 27 27 26 25 23 22 22
20 20 19 18 17 16 14 13 12 11 9 9 9 10 10 9 7 6 7 7 6 6 5 6 6 6 6 5 5 6 8 10 13 17 20 23 25 26 27 26 25 24
22 22 21 19 18 16 16 16 15 12 11 12 12 12 12 13 13 12 11 10 10 10 9 10 10 10 9 8 9 9 10 10 11 11 13 15 18 21 24 26 26 26
24 24 24 23 22 20 17 17 17 16 16 16 15 15 14 14 15 16 15 14 13 12 12 13 13 13 13 12 12 12 13 14 14 14 14 14 15 17 19 21 23 24
26 26 27 27 26 24 21 20 20 20 21 21 20 19 18 17 17 18 18 18 17 16 15 14 15 16 19 19 17 16 16 17 18 19 19 18 18 18 19 20 22 23
29 29 30 29 28 26 24 24 24 23 24 25 25 24 22 20 20 21 22 21 21 20 19 18 18 19 21 21 22 22 21 20 21 22 22 23 23 23 22 23 24 25
33 33 32 31 29 28 28 27 27 27 27 27 27 26 25 24 24 25 27 26 26 25 23 22 23 23 22 22 23 24 25 25 25 25 25 26 26 25 26 27 27 27
36 36 34 33 31 30 30 29 28 28 28 29 30 30 28 27 28 29 30 30 30 30 29 27 27 27 27 26 26 26 28 30 30 29 29 29 29 28 29 30 31 31
39 38 37 35 33 32 32 31 29 28 30 31 31 32 31 30 31 32 33 33 33 33 34 33 32 32 32 32 32 32 32 34 35 35 34 33 32 31 31 32 33 34
41 40 40 38 36 34 33 32 30 30 31 32 31 31 31 32 33 34 35 37 38 37 37 37 36 37 37 37 37 37 37 37 38 39 39 37 35 34 34 35 36 38
41 40 41 41 38 36 35 34 33 33 34 35 33 33 33 32 33 35 37 40 41 41 40 40 40 40 40 41 41 41 40 39 39 39 40 40 39 39 39 40 40 41
40 40 42 42 40 39 38 37 36 35 37 38 38 36 35 35 37 38 40 41 43 43 43 43 43 43 42 42 42 42 42 41 40 40 41 41 40 39 40 42 43 44
42 43 42 41 41 41 41 42 40 38 39 41 41 40 39 39 39 40 41 43 44 45 45 46 46 46 45 44 42 42 42 43 43 44 44 44 43 43 44 46 47 48
46 47 46 44 43 44 45 47 46 45 45 45 44 43 44 45 44 43 43 44 46 46 47 48 48 48 48 47 46 45 44 45 45 46 47 48 50 50 51 52 52 53
Wind_Direction
64 60 56 53 50 49 50 52 53 54 54 54 54 55 56 57 59 62 69 79 90 102 113 124 136 146 151 155 157 159 159 159 157 156 157 158 158 159 159 160 162 164
68 63 59 55 52 48 47 47 50 52 53 54 54 54 54 55 56 58 63 70 81 95 110 123 137 148 154 156 158 160 160 160 159 159 159 160 160 159 160 162 164 167
76 70 66 61 57 51 46 44 45 48 51 53 54 54 53 54 55 56 59 65 75 88 104 121 137 149 155 157 159 161 161 161 161 161 161 161 160 160 161 163 166 170
85 78 74 71 64 58 51 45 42 43 46 50 53 55 55 54 55 55 56 60 69 82 97 116 135 148 156 159 160 162 162 162 162 162 162 162 160 159 160 163 168 173
100 89 80 78 71 66 59 50 44 42 42 45 50 55 56 56 56 56 55 56 62 74 91 110 129 146 156 161 162 163 163 163 163 163 163 162 160 161 164 167 172 175
146 115 96 84 77 71 66 60 54 46 40 41 46 51 55 56 55 55 56 56 59 66 82 104 124 141 154 161 164 164 164 164 164 164 164 164 164 167 172 175 176 176
274 269 226 108 87 84 80 70 62 54 45 40 44 49 51 53 55 56 57 58 59 62 73 95 119 137 151 161 165 166 166 166 166 167 168 170 172 178 184 185 181 180
270 280 276 274 278 268 143 105 60 52 47 38 42 50 52 52 56 59 60 61 62 63 67 80 105 131 149 161 166 168 170 170 170 173 176 177 180 186 196 195 189 187
244 263 272 274 274 272 269 259 277 39 43 32 32 43 49 47 50 61 66 66 65 65 67 74 87 116 146 162 169 173 175 176 178 182 185 185 185 190 197 198 195 195
224 229 239 249 249 248 254 258 256 252 244 320 1 18 38 36 35 46 58 67 73 74 77 80 85 103 131 159 175 179 181 183 187 192 193 194 196 198 201 202 202 204
229 227 226 229 229 231 241 253 254 247 236 229 225 221 210 96 30 30 31 46 79 89 92 92 91 99 117 150 176 183 187 192 197 200 203 206 206 207 210 212 212 213
236 237 236 234 234 235 237 244 255 259 256 246 234 222 209 198 205 211 24 14 54 105 107 109 104 105 116 142 166 180 190 197 203 206 211 215 215 216 221 224 226 227
236 237 238 239 239 238 236 234 240 253 264 267 257 242 229 219 229 260 267 269 261 236 181 163 150 139 145 155 164 176 188 198 206 212 216 220 223 227 230 230 233 237
240 236 235 236 239 242 241 236 234 239 247 256 259 256 248 241 243 262 273 275 271 258 236 222 212 199 200 211 214 207 200 201 208 214 218 223 229 233 234 235 239 242
251 248 244 243 245 249 251 245 238 244 257 260 256 252 250 250 251 256 261 266 271 267 258 250 242 229 220 224 233 237 235 228 222 222 225 227 230 234 236 239 242 243
252 250 247 247 249 250 252 248 242 244 253 260 262 260 257 255 256 258 259 259 261 261 259 259 258 256 251 243 239 241 245 246 243 240 239 237 234 235 240 242 241 239
249 249 245 244 246 248 249 249 246 244 244 245 250 255 257 257 256 256 255 254 255 256 255 255 256 262 265 262 257 256 258 257 254 250 248 247 244 242 242 244 242 240
247 248 245 243 245 246 247 248 249 250 249 246 245 246 249 252 252 250 250 249 250 252 253 250 248 253 262 266 266 266 266 265 261 256 252 250 249 249 248 248 247 245
246 246 245 244 245 246 246 248 251 253 254 251 248 247 249 251 249 246 246 247 248 249 250 249 246 247 251 256 259 262 263 263 262 260 256 252 249 250 252 253 253 253
245 246 244 244 246 247 246 248 252 255 258 257 252 250 251 253 251 248 247 247 249 250 250 250 248 246 245 247 249 253 257 260 262 262 262 260 256 254 255 258 260 261
243 244 242 242 245 246 245 247 249 254 261 263 258 253 253 255 255 254 252 250 250 251 251 251 251 250 249 248 249 250 253 257 261 262 263 264 263 261 262 265 266 267
243 243 242 241 242 242 244 245 245 249 258 261 259 258 259 260 258 258 257 255 253 252 252 251 252 253 253 253 254 254 256 259 261 260 259 259 260 258 258 260 263 266
243 242 241 241 241 241 242 243 242 244 250 254 255 258 261 262 260 259 259 258 257 257 255 253 252 254 256 256 255 256 259 261 262 260 257 256 257 257 255 256 258 261
243 243 242 242 242 242 242 242 243 245 246 248 251 256 261 263 262 258 257 257 258 258 258 257 255 255 256 257 256 255 257 259 260 260 258 257 258 260 260 261 262 264
242 243 242 242 242 242 242 242 241 242 244 248 253 257 259 260 260 259 257 257 258 258 258 258 257 254 254 254 255 255 255 256 257 259 259 259 259 262 265 268 270 270
241 242 241 241 242 243 244 244 242 241 244 249 255 257 256 256 259 260 259 260 262 261 258 256 255 255 254 254 255 256 257 257 258 259 260 260 260 261 263 267 269 271
Height
10973 10972 10971 10970 10969 10968 10967 10966 10965 10964 10962 10961 10960 10958 10957 10955 10953 10952 10951 10950 10950 10950 10949 10949 10949 10950 10952 10954 10956 10959 10961 10964 10966 10967 10969 10971 10973 10974 10976 10977 10978 10980
10974 10974 10973 10972 10971 10970 10969 10968 10967 10966 10965 10964 10962 10961 10960 10958 10956 10954 10953 10952 10952 10951 10951 10951 10951 10952 10953 10955 10958 10960 10963 10965 10967 10968 10970 10972 10974 10976 10977 10978 10980 10981
10975 10974 10974 10974 10973 10972 10971 10970 10969 10969 10968 10966 10965 10964 10962 10961 10959 10958 10956 10955 10954 10954 10953 10953 10953 10954 10955 10957 10959 10961 10964 10966 10968 10970 10972 10974 10976 10977 10979 10980 10981 10982
10976 10975 10975 10975 10975 10974 10973 10972 10972 10971 10969 10969 10968 10967 10966 10964 10963 10962 10961 10959 10957 10956 10956 10955 10956 10957 10958 10959 10961 10963 10965 10968 10970 10972 10974 10977 10978 10980 10981 10981 10981 10982
10976 10976 10976 10976 10976 10976 10975 10974 10974 10973 10971 10971 10970 10969 10969 10968 10967 10966 10965 10963 10961 10960 10959 10958 10959 10960 10961 10963 10964 10966 10968 10971 10973 10975 10978 10979 10981 10981 10981 10980 10981 10983
10977 10977 10977 10977 10977 10976 10976 10976 10975 10974 10973 10973 10972 10972 10971 10971 10970 10969 10968 10967 10965 10964 10962 10962 10962 10963 10964 10966 10968 10969 10971 10973 10975 10977 10979 10981 10981 10982 10982 10982 10983 10985
10978 10978 10978 10978 10978 10977 10977 10977 10976 10976 10975 10974 10974 10974 10974 10973 10973 10972 10971 10970 10969 10968 10966 10966 10965 10966 10967 10969 10971 10972 10974 10975 10977 10979 10980 10981 10983 10985 10987 10986 10986 10986
10978 10979 10979 10979 10978 10978 10978 10977 10977 10976 10976 10976 10976 10976 10975 10975 10974 10974 10973 10973 10972 10971 10970 10969 10969 10969 10970 10971 10973 10975 10976 10977 10978 10979 10979 10980 10982 10985 10987 10986 10984 10983
10977 10978 10978 10979 10979 10979 10978 10978 10977 10977 10977 10977 10977 10977 10976 10976 10976 10975 10975 10975 10974 10973 10973 10972 10972 10973 10974 10976 10977 10977 10977 10978 10978 10978 10978 10978 10979 10980 10981 10982 10983 10984
10975 10976 10977 10977 10977 10978 10977 10977 10977 10977 10977 10977 10977 10977 10977 10977 10977 10976 10976 10976 10975 10975 10975 10974 10974 10975 10976 10978 10980 10979 10979 10980 10980 10980 10980 10980 10980 10980 10981 10982 10984 10985
10974 10974 10975 10975 10976 10976 10976 10976 10976 10976 10976 10977 10977 10977 10977 10977 10977 10977 10977 10977 10977 10976 10976 10976 10976 10976 10977 10978 10980 10980 10980 10980 10981 10981 10982 10982 10982 10983 10984 10984 10984 10985
10973 10974 10974 10974 10974 10975 10975 10976 10976 10976 10976 10976 10976 10976 10976 10976 10976 10977 10977 10977 10977 10977 10977 10977 10977 10977 10977 10978 10979 10979 10979 10980 10980 10981 10981 10982 10982 10983 10984 10984 10984 10984
10971 10972 10972 10972 10973 10973 10973 10974 10974 10975 10975 10976 10976 10976 10976 10976 10977 10977 10977 10977 10977 10977 10977 10978 10978 10978 10978 10979 10980 10979 10979 10979 10979 10979 10980 10981 10981 10982 10983 10983 10982 10982
10968 10969 10969 10970 10970 10971 10972 10972 10973 10973 10974 10974 10975 10975 10976 10976 10977 10977 10977 10977 10977 10977 10977 10977 10977 10978 10978 10979 10979 10979 10979 10979 10979 10979 10979 10980 10981 10981 10980 10980 10980 10980
10967 10967 10968 10968 10969 10970 10971 10971 10971 10972 10972 10973 10973 10974 10974 10975 10976 10976 10976 10976 10976 10976 10976 10976 10976 10976 10977 10978 10978 10978 10979 10979 10979 10979 10979 10979 10979 10979 10978 10978 10978 10979
10963 10964 10965 10965 10966 10967 10968 10969 10970 10970 10970 10971 10971 10972 10973 10973 10974 10975 10975 10975 10974 10974 10974 10974 10975 10975 10975 10975 10976 10977 10977 10977 10978 10978 10978 10978 10978 10977 10977 10977 10977 10977
10959 10959 10960 10960 10961 10963 10964 10966 10966 10967 10967 10968 10968 10969 10970 10971 10972 10972 10973 10973 10973 10972 10972 10972 10973 10973 10973 10973 10974 10974 10975 10976 10976 10976 10976 10976 10976 10976 10976 10975 10975 10975
10954 10954 10955 10956 10957 10959 10960 10961 10962 10963 10964 10964 10965 10965 10966 10968 10968 10969 10969 10970 10970 10970 10970 10970 10970 10970 10970 10971 10972 10972 10973 10973 10974 10973 10973 10973 10973 10973 10973 10973 10973 10973
10948 10949 10951 10952 10953 10954 10955 10957 10958 10960 10960 10961 10961 10962 10963 10964 10965 10965 10966 10966 10967 10967 10967 10967 10967 10967 10967 10968 10968 10969 10970 10970 10970 10970 10970 10969 10970 10970 10970 10969 10969 10970
10943 10945 10947 10949 10949 10950 10952 10953 10955 10956 10957 10957 10957 10958 10959 10960 10961 10962 10962 10963 10963 10963 10964 10964 10964 10964 10964 10964 10964 10965 10966 10966 10966 10966 10966 10966 10966 10966 10966 10965 10965 10965
10939 10940 10943 10944 10945 10946 10948 10949 10951 10953 10953 10952 10952 10953 10954 10956 10957 10957 10958 10959 10959 10959 10959 10959 10959 10959 10959 10960 10960 10961 10961 10961 10961 10961 10961 10962 10962 10962 10961 10960 10960 10961
10935 10937 10938 10940 10941 10942 10944 10945 10948 10949 10948 10946 10947 10948 10949 10950 10951 10952 10954 10954 10954 10955 10954 10954 10954 10954 10955 10955 10955 10955 10956 10956 10956 10956 10957 10957 10957 10957 10956 10955 10955 10955
10931 10932 10933 10935 10936 10938 10939 10940 10943 10944 10943 10941 10942 10943 10943 10944 10946 10947 10948 10948 10949 10949 10949 10949 10949 10949 10949 10950 10950 10950 10950 10951 10951 10951 10951 10952 10951 10951 10951 10950 10949 10949
10926 10927 10928 10929 10931 10933 10934 10935 10937 10938 10936 10935 10936 10937 10937 10938 10940 10941 10942 10942 10943 10944 10943 10943 10943 10944 10944 10944 10944 10944 10945 10945 10945 10945 10945 10945 10945 10945 10945 10944 10944 10943
10920 10921 10922 10924 10925 10927 10928 10928 10930 10932 10931 10930 10931 10931 10931 10932 10933 10934 10935 10936 10937 10938 10938 10937 10937 10937 10938 10938 10938 10938 10938 10939 10939 10939 10939 10939 10938 10938 10937 10937 10936 10936
10913 10915 10917 10918 10920 10921 10920 10921 10923 10926 10925 10925 10926 10926 10926 10926 10926 10927 10928 10929 10930 10930 10930 10930 10930 10931 10932 10932 10932 10932 10932 10932 10932 10932 10932 10932 10931 10930 10929 10928 10927 10927